DMSP 5D-2 F13 DEB, 40568

Orbit data source: Space-Track

DMSP 5D-2 F13 DEB, 40568 is space debris in SSO originally from a launch on Fri, 24 Mar 1995 UTC launched from the Air Force Western Test Range (AFWTR). Debris objects in space refer to the collection of defunct objects orbiting the Earth. Examples of debris include non-operational satellites, rocket bodies, and fragments generated from explosions, collisions, or faulty payload assembly.

Loading next visibility...
Identifier
40568, 1995-015EB
Orbit
SSO
Country
Flag of USUS
Related business
Manufacturer
Unknown
Mission
Spacecraft
Bus & Motor
Unknown
Mass
Unknown
Launch date (UTC)
1995-03-24 (31 years ago)
Launch vehicle
Unknown
Launch site
Air Force Western Test Range (AFWTR)
Object type
Payload
Rocket body
Debris
Shape & HBR
Unknown shape, 0.1 m
Radar Cross Section
Medium (>0.1 m² and <1 m²)

Expand to show TLE details & history
Last TLE update: 10 hours ago

TLE from 10 hours ago
0 DMSP 5D-2 F13 DEB
1 40568U 95015EB  26257.07321065  .00002862  00000-0  97340-3 0  9993
2 40568  98.8332 294.2130 0026113 269.3375  90.4819 14.37187168593056
Epoch: 2026-09-14T01:45Z
TLE epoch observation values (Epoch: 2026-09-14T01:45:25.400Z)
Latitude
0.00005°
Longitude
-85.20159°
Altitude
770.947 km
Speed
7.469 km/s
True Right ascension
19h 36m 51s
True Declination
0° 00' 00"
Sunlit
Object was in full shadow at epoch
Visualization orbit readout
Latitude
Unknown
Longitude
Unknown
Altitude
Unknown
Speed
Unknown
Apparent Right ascension
Unknown
Apparent Declination
Unknown
Sunlit
N/A
Visualization observer readout
Local Sidereal Time
04:16:12
Azimuth
Unknown
Elevation
Unknown
Doppler factor
Unknown
Orbital elements
Apogee altitude
783.602 km
Perigee altitude
746.296 km
Semi-major axis
7,143.086 km
Eccentricity
0.00261
Inclination
98.8332°
RAAN
294.213°
Arg. of periapsis
269.3375°
True anomaly
90.78111°
Mean anomaly
90.4819°
Eccentric anomaly
90.63151°
Mean motion
3.59513 °/min
Orbital period
100.14 mins
BSTAR
0.0009734
Loading maneuver chart data...
Computing Atmospheric mass density...

Documentation

Showing up to 5 results
|